Location: Elende
(51.4317°N, 10.6316°E)
Time: 15:44:27
(UTC+00:00)

Ariane Rocket - Pass Details

Date: 18 September 2020
Orbit: 761 x 769 km, 98.7° (Epoch: 22 October)

Event Time Altitude Azimuth Distance (km) Brightness Sun altitude
Exits shadow 18:09:46 - 143° (SE) 3,100 5.7 -7.9°
Reaches altitude 10° 18:11:50 10° 138° (SE) 2,297 5.0 -8.2°
Maximum altitude 18:16:39 47° 66° (ENE) 1,017 3.3 -8.9°
Drops below altitude 10° 18:21:31 10° 354° (N) 2,318 5.8 -9.7°
Sets 18:23:54 0° 349° (N) 3,250 6.6 -10.0°
